Regional Weather Roundup
Issued by NWS Charleston, SC

Current Version | Previous Version | Graphics & Text | Print | Product List | Glossary On
Versions: 1 2 3 4 5 6 7 8 9 10 11 12 13 14 15 16 17 18 19 20 21 22 23 24 25 26 27 28 29 30 31 32 33 34 35 36 37 38 39 40 41 42 43 44 45 46 47 48 49 50
000 ASUS42 KCHS 281028 RWRCHS REGIONAL WEATHER ROUNDUP NATIONAL WEATHER SERVICE CHARLESTON SC 600 AM EDT SUN AUG 28 2016 NOTE: "FAIR" INDICATES FEW OR NO CLOUDS BELOW 12,000 FEET WITH NO SIGNIFICANT WEATHER AND/OR OBSTRUCTIONS TO VISIBILITY. NOT ALL STATIONS ARE QUALITY CONTROLLED. USE DATA WITH CAUTION... ESPECIALLY DEWPOINT OBSERVATIONS. SCZ027-030-031-034>040-042>050-281100- ...SOUTHEAST SOUTH CAROLINA... CITY SKY/WX TMP DP RH WIND PRES REMARKS N CHARLESTON CLEAR 76 72 87 NE6 30.08R WATERFRONT PRK N/A 79 76 91 NE9 30.05S MOUNT PLEASANT FAIR 75 73 94 CALM 30.08S JOHNS ISLAND FAIR 75 73 94 CALM 30.08R PINOPOLIS N/A 79 75 89 NE7 30.01R MONCKS CORNER FAIR 72 70 94 CALM 30.09R SUMMERVILLE FAIR 73 73 100 CALM 30.09S BEAUFORT MCAS CLEAR 74 72 93 N7 30.07S BEAUFORT ARPT FAIR 77 73 88 N7 30.07R HILTON HEAD IS NOT AVBL WALTERBORO SUNNY 73 73 100 CALM 30.10R ALLENDALE CLOUDY 73 72 94 CALM 30.09R ...SOUTHERN MIDLANDS AND PEE DEE... CITY SKY/WX TMP DP RH WIND PRES REMARKS GEORGETOWN FAIR 72 72 100 CALM 30.09S KINGSTREE FAIR 70 68 94 CALM 30.10R ORANGEBURG CLOUDY 76 72 87 NE3 30.10S BARNWELL NOT AVBL AIKEN FAIR 70 66 88 CALM 30.15S MANNING FAIR 70 70 100 CALM 30.10R COLUMBIA PTCLDY 77 70 79 CALM 30.10S SUMTER CLEAR 75 72 89 N6 30.08S FLORENCE CLEAR 74 71 91 N6 30.11R MYRTLE BEACH CLEAR 77 66 69 NE8 30.09F N MYRTLE BEACH CLEAR 75 74 96 N5 30.08S $$ GAZ063-065-086>088-099>101-113>116-118-119-134>141-150-281100- ...SOUTHEAST GEORGIA... CITY SKY/WX TMP DP RH WIND PRES REMARKS SAVANNAH ARPT PTCLDY 75 72 90 N5 30.06S HUNTER AAF CLEAR 76 76 100 VRB2 30.03S FORT STEWART CLEAR 74 72 94 NE3 30.03S FOG STATESBORO PTCLDY 74 73 98 NE3 30.08S SYLVANIA NOT AVBL CLAXTON FAIR 71 71 100 CALM 30.08R FOG ...CSRA...CENTRAL AND FAR SOUTHEAST GEORGIA... CITY SKY/WX TMP DP RH WIND PRES REMARKS THOMSON PTCLDY 72 71 99 MISG 30.16S AUGUSTA-BUSH PTCLDY 73 70 90 CALM 30.10R AUGUSTA-DANIEL CLEAR 78 70 76 E5 30.11R SWAINSBORO FAIR 72 70 94 NE3 30.10R VIDALIA PTCLDY 73 73 100 NE5 30.08S EASTMAN FAIR 72 72 100 CALM 30.10S HAZLEHURST FAIR 75 75 100 CALM 30.06R ALMA CLEAR 73 73 100 NE3 30.05S WAYCROSS N/A 76 76 100 CALM 30.05R JESUP FAIR 73 73 100 CALM 30.06R BAXLEY FAIR 73 73 100 CALM 30.06S BRUNSWICK CLEAR 77 73 88 CALM 30.06R SAINT SIMONS PTCLDY 80 72 76 E10 30.03R $$ SCZ027-028-034-036>038-045-046-048>050-GAZ119-141-281100- ...LAKE AND SUPPLEMENTAL COASTAL OBSERVATIONS... STATION/POSITION TIME TEMP WIND PRES WAVE SWELL AIR SEA DIR/SP/G HT/PER HT/PER/DIR (UTC) (F) (DEG/KT/KT) (MB) (FT/S) (FT/S/D) WINYAH BAY 0945 76 10/ 4 1018.0S LAKE MURRAY 0900 76 CALM / 3 1019.0S ACE BASIN NERRS 0900 74 CALM 1018.0S FORT PULASKI 1000 83 85 60/ 14/ 17 1018.0R SAPELO ISLAND 1000 80 70/ 5 1017.0S $$ ANZ835-935-AMZ111-154-330-350-352-354-370-450-454-472-281100- ...C-MAN AND BUOY OBSERVATIONS... STATION/POSITION TIME TEMP WIND PRES WAVE SWELL AIR SEA DIR/SP/G HT/PER HT/PER/DIR (UTC) (F) (DEG/KT/KT) (MB) (FT/S) (FT/S/D) BUOY 41004 0950 83 84 50/ 12/ 14 1017.2R 4/ 9 3/120/ 9 BUOY 41008 0950 83 85 90/ 14/ 16 1016.8 4/ 9 2/120/ 9 FOLLY BEACH CMAN 1000 80 30/ 10/ 11 1018.5R CAPERS NEARSHORE 0908 81 84 10/ 10/ 12 1018.0R FRIPP NEARSHORE 1008 83 86 80/ 14/ 19 1017.0R STATION/POSITION TIME TEMP WIND PRES WAVE SWELL AIR SEA DIR/SP/G HT/PER HT/PER/DIR (UTC) (F) (DEG/KT/KT) (MB) (FT/S) (FT/S/D) 5E ST. MARYS GA 1001 85 N/A 4/ 9 FRYING PAN BUOY 1000 83 84 20/ 8/ 12 1017.8R BUOY 41025 0950 82 84 80/ 6/ 6 1018.8R 3/ 9 3/110/ 9 CAPE LOOKOUT NC 1000 81 40/ 9/ 10 1018.5S BUOY 41002 0950 82 84 60/ 12/ 14 1016.5F 4/ 8 2/120/ 8 BUOY 41010 NOT AVBL ST AUGUSTINE FL 1000 79 84 80/ 16/ 18 1017.3R $$

USA.gov is the U.S. government's official web portal to all federal, state and local government web resources and services.